User: anonymous   Login
Location: Caltech
(34.1382°N, 118.1253°W)
Time: 11:16:17
(UTC-07:00)
Language:

RS-15 - Orbit

View from above orbital plane
View from above orbital plane
View from above satellite
View from above satellite

Ground track
Ground track

The orbit data is extracted from the following two-line orbital elements,

1 23439U 94085A   16179.94333270 -.00000033 +00000-0 +28060-3 0  9998
2 23439 064.8166 072.1354 0165526 306.0343 052.5338 11.27565763885639
Epoch (UTC): 27 June 2016 22:38:23
Eccentricity: 0.0165526
inclination: 64.8166°
perigee height: 1883 km
apogee height: 2161 km
right ascension of ascending node: 72.1354°
argument of perigee: 306.0343°
revolutions per day: 11.27565763
mean anomaly at epoch: 52.5338°
orbit number at epoch: 88563

The dashed part of the orbit path shows where the satellite is in the earth's shadow,  

DLR